O3B FM13

Last updated on Fri Dec 29 2023 00:03:04 GMT+0000 (Coordinated Universal Time)

1 43234U 18024D 23361.73297214 -.00000024 00000+0 00000+0 0 9996 2 43234 0.0466 35.9805 0002150 232.2109 91.7822 5.00115742105922
UTC large
Height (km)
Speed (km/s)
/
Latitude / Longitude
Inclination (degrees)
Orbital Period (minutes)
Azimuth
Elevation
Range (km)
Doppler Factor

Next 0 passes for location: London (51.5072 / 0.1276)

Sorry there are no passes over London.